Home > Weather > Sendai > Past weeks

Flag for Japan Weather for the Past 2 Weeks in Sendai, Japan

Now
43 °F

Scattered clouds.


Feels Like: 37 °F
Forecast: 29 / 58 °F
Wind: 9 mph from Southeast

Location: Sendai Airport

Current Time: Feb 12, 2016 at 1:41:39 PM

Latest Report: Feb 12, 2016 at 1:00 PM


Visibility: N/A

Pressure: 30.39 "Hg

Humidity: 61%

Dew point: 30 °F

Location of SendaiLocation

Historic Weather in Sendai — Graph

°F

Sendai Temperature Yesterday

Maximum temperature yesterday: 45 °F (at 12:00 PM)
Minimum temperature yesterday: 30 °F (at 9:00 PM)
Average temperature yesterday: 39 °F

High & Low Weather Summary for the Past Weeks

 TemperatureHumidityPressure
High48 °F (Jan 28, 1:00 PM)100% (Jan 30, 7:00 AM)30.51 "Hg (Jan 30, 7:00 AM)
Low23 °F (Feb 8, 6:00 AM)27% (Feb 11, 2:00 PM)29.65 "Hg (Feb 9, 1:00 PM)
Average36 °F61%30.10 "Hg
* Reported Jan 28 12:00 Noon — Feb 12 12:00 Noon, Sendai, Weather by CustomWeather, © 2016

Note: Actual official high and low records may vary slightly from our data, if they occured in-between our weather recording intervals... More about our weather records

Advertising

Sendai Weather History for the Previous 24 Hours

 ConditionsComfort  
Time TempWeatherWind HumidityBarometerVisibility
12:00 PM
Fri, Feb 12
43 °FPassing clouds.10 mph53%30.42 "HgN/A
11:00 AM43 °FPassing clouds.6 mph53%30.45 "HgN/A
10:00 AM39 °FPartly sunny.5 mph56%30.48 "HgN/A
9:00 AM36 °FPartly sunny.2 mph60%30.51 "HgN/A
8:00 AM30 °FSunny.2 mph75%30.51 "Hg10 mi
7:00 AM23 °FSunny.2 mph86%30.51 "Hg10 mi
6:00 AM25 °FClear.1 mph80%30.51 "Hg10 mi
9:00 PM
Thu, Feb 11
30 °FPassing clouds.6 mph64%30.51 "HgN/A
8:00 PM34 °FPassing clouds.5 mph51%30.51 "HgN/A
7:00 PM34 °FPassing clouds.9 mph56%30.48 "HgN/A
6:00 PM39 °FPassing clouds.7 mph39%30.48 "HgN/A
5:00 PM41 °FPassing clouds.10 mph36%30.45 "HgN/A
4:00 PM43 °FPassing clouds.14 mph34%30.42 "HgN/A
3:00 PM45 °FPassing clouds.14 mph29%30.42 "HgN/A
2:00 PM45 °FScattered clouds.17 mph27%30.42 "HgN/A
1:00 PM45 °FScattered clouds.14 mph31%30.42 "HgN/A
Weather by CustomWeather, © 2016

See weather overviewHow to use our weather pages